EW5756 Weather Reports


Display with metric or nautical units.
time (UTC)temp
F
wind
direction
speed
MPH
gust
MPH
rain 1hr
in
rain 24hr
in
rain mn
in
humidity
%
barometer
mb
20200329161049 84 181 1.0 7.0 0.00 0.00 0.00 70 1019.8
20200329160458 84 331 1.0 7.0 0.00 0.00 0.00 69 1019.8
20200329155955 83 211 1.0 7.0 0.00 0.00 0.00 69 1019.8
20200329155446 83 19 1.0 7.0 0.00 0.00 0.00 69 1019.9
20200329154935 83 126 1.0 6.0 0.00 0.00 0.00 69 1019.9
20200329154428 82 159 1.0 7.0 0.00 0.00 0.00 70 1020.0
20200329153919 82 139 1.0 7.0 0.00 0.00 0.00 71 1020.0
20200329153402 82 160 1.0 8.0 0.00 0.00 0.00 71 1020.0
20200329152850 81 83 1.0 8.0 0.00 0.00 0.00 70 1020.1
20200329152342 82 150 0.0 0.0 0.00 0.00 0.00 71 1020.2
20200329151828 81 221 0.0 0.0 0.00 0.00 0.00 72 1020.3
20200329151317 81 199 0.0 0.0 0.00 0.00 0.00 72 1020.4
20200329150808 81 300 0.0 0.0 0.00 0.00 0.00 73 1020.4
20200329150757 81 240 0.0 0.0 0.00 0.00 0.00 75 1020.3
20200329150301 81 240 0.0 0.0 0.00 0.00 0.00 75 1020.3
20200329145746 80 221 0.0 0.0 0.00 0.00 0.00 76 1020.3
20200329145235 80 288 0.0 0.0 0.00 0.00 0.00 76 1020.3
20200329144721 79 185 0.0 0.0 0.00 0.00 0.00 76 1020.4
20200329144212 79 302 0.0 0.0 0.00 0.00 0.00 76 1020.4
20200329143709 79 224 0.0 0.0 0.00 0.00 0.00 78 1020.4
20200329143207 79 213 0.0 0.0 0.00 0.00 0.00 80 1020.4
20200329142645 78 215 0.0 0.0 0.00 0.00 0.00 82 1020.4
20200329142144 78 296 0.0 0.0 0.00 0.00 0.00 83 1020.3
20200329141619 77 281 0.0 0.0 0.00 0.00 0.00 84 1020.2
20200329141109 77 16 0.0 0.0 0.00 0.00 0.00 85 1020.2
20200329140553 76 244 0.0 0.0 0.00 0.00 0.00 85 1020.2
20200329140049 76 293 0.0 0.0 0.00 0.00 0.00 86 1020.1
20200329135546 76 39 0.0 0.0 0.00 0.00 0.00 86 1020.1
20200329135051 75 137 0.0 0.0 0.00 0.00 0.00 86 1020.1
20200329134525 74 238 0.0 0.0 0.00 0.00 0.00 86 1020.2
20200329134046 74 269 0.0 0.0 0.00 0.00 0.00 86 1020.2
20200329133458 74 181 0.0 0.0 0.00 0.00 0.00 86 1020.2
20200329133003 73 173 0.0 0.0 0.00 0.00 0.00 86 1020.1
20200329132448 73 146 0.0 0.0 0.00 0.00 0.00 85 1020.0
20200329131907 72 152 0.0 0.0 0.00 0.00 0.00 84 1020.0
20200329131352 71 184 0.0 0.0 0.00 0.00 0.00 83 1019.9
20200329130842 71 184 0.0 0.0 0.00 0.00 0.00 83 1019.9
20200329130334 70 160 0.0 0.0 0.00 0.00 0.00 83 1019.9
20200329125823 69 160 0.0 0.0 0.00 0.00 0.00 83 1019.9
20200329125314 69 160 0.0 0.0 0.00 0.00 0.00 83 1019.8
20200329124804 68 160 0.0 0.0 0.00 0.00 0.00 83 1019.7
20200329124250 68 160 0.0 0.0 0.00 0.00 0.00 84 1019.7
20200329123737 67 132 0.0 0.0 0.00 0.00 0.00 83 1019.7
20200329123230 67 132 0.0 0.0 0.00 0.00 0.00 83 1019.5
20200329122719 66 132 0.0 0.0 0.00 0.00 0.00 83 1019.5
20200329122208 65 132 0.0 0.0 0.00 0.00 0.00 84 1019.4
20200329121700 65 132 0.0 0.0 0.00 0.00 0.00 84 1019.3
20200329121148 64 132 0.0 0.0 0.00 0.00 0.00 84 1019.3
20200329120634 63 132 0.0 0.0 0.00 0.00 0.00 85 1019.3
20200329120126 62 132 0.0 0.0 0.00 0.00 0.00 86 1019.1
20200329115607 62 132 0.0 0.0 0.00 0.00 0.00 86 1019.1
20200329115049 62 132 0.0 0.0 0.00 0.00 0.00 86 1019.0
20200329114544 61 132 0.0 0.0 0.00 0.00 0.00 86 1018.8
20200329114046 61 132 0.0 0.0 0.00 0.00 0.00 87 1018.8
20200329113529 61 132 0.0 0.0 0.00 0.00 0.00 87 1018.6
20200329113006 61 132 0.0 0.0 0.00 0.00 0.00 87 1018.6
20200329112447 61 132 0.0 0.0 0.00 0.00 0.00 87 1018.6
20200329111937 61 132 0.0 0.0 0.00 0.00 0.00 87 1018.5
20200329111430 61 132 0.0 0.0 0.00 0.00 0.00 87 1018.4
20200329110904 61 132 0.0 0.0 0.00 0.00 0.00 87 1018.4
20200329110407 61 132 0.0 0.0 0.00 0.00 0.00 87 1018.2
20200329105858 61 132 0.0 0.0 0.00 0.00 0.00 87 1018.2
20200329105402 61 132 0.0 0.0 0.00 0.00 0.00 87 1018.1
20200329104904 61 132 0.0 0.0 0.00 0.00 0.00 87 1018.1
20200329104358 61 132 0.0 0.0 0.00 0.00 0.00 87 1018.0
20200329103813 61 132 0.0 0.0 0.00 0.00 0.00 87 1018.0
20200329103300 61 132 0.0 0.0 0.00 0.00 0.00 87 1018.0
20200329102747 61 132 0.0 0.0 0.00 0.00 0.00 87 1017.9
20200329102240 61 132 0.0 0.0 0.00 0.00 0.00 87 1017.9
20200329101732 61 132 0.0 0.0 0.00 0.00 0.00 87 1017.8
20200329101219 61 132 0.0 0.0 0.00 0.00 0.00 87 1017.7
20200329100706 61 132 0.0 0.0 0.00 0.00 0.00 87 1017.6
20200329100153 61 132 0.0 0.0 0.00 0.00 0.00 87 1017.5
20200329095644 61 132 0.0 0.0 0.00 0.00 0.00 87 1017.5
20200329095135 61 132 0.0 0.0 0.00 0.00 0.00 87 1017.4
20200329094622 61 132 0.0 0.0 0.00 0.00 0.00 87 1017.4
20200329094113 61 132 0.0 0.0 0.00 0.00 0.00 87 1017.4
20200329093600 61 132 0.0 0.0 0.00 0.00 0.00 87 1017.4
20200329093043 61 132 0.0 0.0 0.00 0.00 0.00 87 1017.4
20200329092532 62 132 0.0 0.0 0.00 0.00 0.00 87 1017.4
20200329092027 62 132 0.0 0.0 0.00 0.00 0.00 87 1017.3
20200329091533 62 132 0.0 0.0 0.00 0.00 0.00 87 1017.2
20200329091002 62 132 0.0 0.0 0.00 0.00 0.00 87 1017.2
20200329090456 62 132 0.0 0.0 0.00 0.00 0.00 87 1017.1
20200329085952 62 132 0.0 0.0 0.00 0.00 0.00 88 1017.2
20200329085446 62 132 0.0 0.0 0.00 0.00 0.00 88 1017.1
20200329084914 62 132 0.0 0.0 0.00 0.00 0.00 88 1017.1
20200329084404 63 132 0.0 0.0 0.00 0.00 0.00 87 1017.1
20200329083907 63 132 0.0 0.0 0.00 0.00 0.00 87 1017.1
20200329083334 63 132 0.0 0.0 0.00 0.00 0.00 87 1017.1
20200329082823 63 132 0.0 0.0 0.00 0.00 0.00 87 1017.1
20200329082323 63 132 0.0 0.0 0.00 0.00 0.00 87 1017.0
20200329081816 63 132 0.0 0.0 0.00 0.00 0.00 87 1017.1
20200329081315 63 132 0.0 0.0 0.00 0.00 0.00 88 1017.0
20200329080814 63 132 0.0 0.0 0.00 0.00 0.00 87 1017.0
20200329080307 63 132 0.0 0.0 0.00 0.00 0.00 87 1017.0
20200329075809 63 132 0.0 0.0 0.00 0.00 0.00 87 1017.0
20200329075220 63 132 0.0 0.0 0.00 0.00 0.00 87 1017.0
20200329074710 63 132 0.0 0.0 0.00 0.00 0.00 87 1017.0
20200329074149 64 132 0.0 0.0 0.00 0.00 0.00 87 1017.0
20200329073639 64 132 0.0 0.0 0.00 0.00 0.00 87 1016.9
20200329073143 64 132 0.0 0.0 0.00 0.00 0.00 87 1017.0
20200329072632 64 132 0.0 0.0 0.00 0.00 0.00 87 1017.0
20200329072125 64 132 0.0 0.0 0.00 0.00 0.00 87 1017.0
20200329071613 64 132 0.0 0.0 0.00 0.00 0.00 87 1017.0
20200329071102 64 132 0.0 0.0 0.00 0.00 0.00 87 1016.9
20200329070554 65 132 0.0 0.0 0.00 0.00 0.00 87 1017.0
20200329070033 65 132 0.0 0.0 0.00 0.00 0.00 87 1017.0
20200329065535 65 132 0.0 0.0 0.00 0.00 0.00 87 1017.0
20200329065024 65 132 0.0 0.0 0.00 0.00 0.00 87 1017.0
20200329064504 65 132 0.0 0.0 0.00 0.00 0.00 87 1017.0
20200329063954 65 132 0.0 0.0 0.00 0.00 0.00 87 1016.9
20200329063458 65 132 0.0 0.0 0.00 0.00 0.00 87 1016.9
20200329062931 66 132 0.0 0.0 0.00 0.00 0.00 87 1017.0
20200329062419 66 132 0.0 0.0 0.00 0.00 0.00 86 1017.0
20200329061910 67 132 0.0 0.0 0.00 0.00 0.00 86 1017.0
20200329061403 67 132 0.0 0.0 0.00 0.00 0.00 86 1017.0
20200329060853 67 132 0.0 0.0 0.00 0.00 0.00 86 1017.1
20200329060351 67 132 0.0 0.0 0.00 0.00 0.00 86 1017.1
20200329055840 67 132 0.0 0.0 0.00 0.00 0.00 86 1017.1
20200329055341 67 132 0.0 0.0 0.00 0.00 0.00 86 1017.0
20200329054853 67 132 0.0 0.0 0.00 0.00 0.00 86 1017.0
20200329054352 67 132 0.0 0.0 0.00 0.00 0.00 86 1017.0
20200329053840 67 132 0.0 0.0 0.00 0.00 0.00 86 1017.0
20200329053334 67 132 0.0 0.0 0.00 0.00 0.00 86 1017.0
20200329052813 67 132 0.0 0.0 0.00 0.00 0.00 86 1017.0
20200329052315 67 132 0.0 0.0 0.00 0.00 0.00 86 1017.0
20200329051806 67 132 0.0 0.0 0.00 0.00 0.00 86 1017.0
20200329051306 67 132 0.0 0.0 0.00 0.00 0.00 86 1017.1
20200329050740 67 132 0.0 0.0 0.00 0.00 0.00 86 1017.1
20200329050229 67 132 0.0 0.0 0.00 0.00 0.00 85 1017.0
20200329045727 67 132 0.0 0.0 0.00 0.00 0.00 85 1017.1
20200329045226 67 132 0.0 0.0 0.00 0.00 0.00 85 1017.1
20200329044720 67 132 0.0 0.0 0.00 0.00 0.00 84 1017.1
20200329044213 67 132 0.0 0.0 0.00 0.00 0.00 83 1017.1
20200329043713 67 132 0.0 0.0 0.00 0.00 0.00 83 1017.1
20200329043236 67 132 0.0 0.0 0.00 0.00 0.00 83 1017.1
20200329042725 67 132 0.0 0.0 0.00 0.00 0.00 83 1017.0
20200329042209 67 132 0.0 0.0 0.00 0.00 0.00 83 1017.0
20200329041700 68 132 0.0 0.0 0.00 0.00 0.00 83 1017.0
20200329041212 68 132 0.0 0.0 0.00 0.00 0.00 82 1017.0
20200329040724 68 132 0.0 0.0 0.00 0.00 0.00 82 1017.0
20200329040208 69 132 0.0 0.0 0.00 0.00 0.00 81 1017.0
20200329035645 69 132 0.0 0.0 0.00 0.00 0.00 81 1017.0
20200329035148 69 132 0.0 0.0 0.00 0.00 0.00 81 1016.9
20200329034601 70 132 0.0 0.0 0.00 0.00 0.00 81 1016.9
20200329034053 70 132 0.0 0.0 0.00 0.00 0.00 81 1016.9
20200329033536 70 132 0.0 0.0 0.00 0.00 0.00 80 1016.9
20200329033037 71 132 0.0 0.0 0.00 0.00 0.00 79 1016.9
20200329033033 71 132 0.0 0.0 0.00 0.00 0.00 80 1016.9
20200329032534 71 132 0.0 0.0 0.00 0.00 0.00 79 1016.9
20200329032005 71 132 0.0 0.0 0.00 0.00 0.00 79 1016.9
20200329031456 72 132 0.0 0.0 0.00 0.00 0.00 79 1016.9
20200329030945 72 132 0.0 0.0 0.00 0.00 0.00 79 1016.9
20200329030434 72 132 0.0 0.0 0.00 0.00 0.00 79 1016.8
20200329025928 72 132 0.0 0.0 0.00 0.00 0.00 78 1016.9
20200329025412 73 130 0.0 0.0 0.00 0.00 0.00 78 1016.8
20200329024902 73 209 0.0 0.0 0.00 0.00 0.00 78 1016.9
20200329024352 73 195 1.0 4.0 0.00 0.00 0.00 78 1016.8
20200329023841 73 296 1.0 6.0 0.00 0.00 0.00 78 1016.8
20200329023333 73 296 1.0 6.0 0.00 0.00 0.00 78 1016.8
20200329022820 74 226 2.0 5.0 0.00 0.00 0.00 78 1016.5
20200329022323 74 130 2.0 5.0 0.00 0.00 0.00 79 1016.4
20200329021828 74 128 2.0 4.0 0.00 0.00 0.00 79 1016.3
20200329021303 74 136 2.0 4.0 0.00 0.00 0.00 78 1016.3
20200329020809 74 146 2.0 5.0 0.00 0.00 0.00 78 1016.2
20200329020322 74 122 2.0 5.0 0.00 0.00 0.00 78 1016.3
20200329015829 75 130 2.0 4.0 0.00 0.00 0.00 78 1016.2
20200329015813 74 135 2.0 4.0 0.00 0.00 0.00 78 1016.3
20200329015244 75 130 2.0 4.0 0.00 0.00 0.00 78 1016.2
20200329014652 75 123 2.0 7.0 0.00 0.00 0.00 78 1016.2
20200329014143 75 122 3.0 7.0 0.00 0.00 0.00 77 1016.1
20200329013633 75 128 3.0 6.0 0.00 0.00 0.00 77 1016.1
20200329013126 75 124 3.0 8.0 0.00 0.00 0.00 77 1016.1
20200329012614 76 120 3.0 8.0 0.00 0.00 0.00 77 1016.0
20200329012105 76 144 4.0 8.0 0.00 0.00 0.00 77 1015.9
20200329011605 76 119 4.0 8.0 0.00 0.00 0.00 77 1015.8
20200329011054 76 106 3.0 8.0 0.00 0.00 0.00 77 1015.7
20200329010613 77 115 3.0 8.0 0.00 0.00 0.00 76 1015.7
20200329010101 77 123 4.0 8.0 0.00 0.00 0.00 76 1015.6
20200329005547 77 130 4.0 7.0 0.00 0.00 0.00 75 1015.5
20200329004954 77 113 4.0 8.0 0.00 0.00 0.00 75 1015.4
20200329004444 78 143 5.0 8.0 0.00 0.00 0.00 75 1015.4
20200329003932 78 130 4.0 8.0 0.00 0.00 0.00 75 1015.3
20200329003426 78 126 4.0 8.0 0.00 0.00 0.00 74 1015.2
20200329002915 78 114 4.0 7.0 0.00 0.00 0.00 74 1015.2
20200329002403 78 118 3.0 7.0 0.00 0.00 0.00 73 1015.2
20200329001849 78 126 3.0 6.0 0.00 0.00 0.00 73 1015.1
20200329001335 79 101 3.0 7.0 0.00 0.00 0.00 72 1015.1
20200329000826 79 106 4.0 8.0 0.00 0.00 0.00 72 1015.0
20200329000319 79 109 3.0 8.0 0.00 0.00 0.00 71 1015.0
20200328235833 80 124 3.0 8.0 0.00 0.00 0.00 71 1014.9
20200328235312 80 115 4.0 8.0 0.00 0.00 0.00 70 1014.9
20200328234800 80 101 4.0 9.0 0.00 0.00 0.00 70 1014.9
20200328234248 81 101 4.0 9.0 0.00 0.00 0.00 69 1014.8
20200328233739 81 95 5.0 9.0 0.00 0.00 0.00 69 1014.8
20200328233230 81 98 5.0 9.0 0.00 0.00 0.00 68 1014.7
20200328232729 82 113 5.0 8.0 0.00 0.00 0.00 68 1014.6
20200328232209 82 112 6.0 12.0 0.00 0.00 0.00 67 1014.7
20200328231707 82 109 7.0 12.0 0.00 0.00 0.00 66 1014.6
20200328231157 83 96 7.0 15.0 0.00 0.00 0.00 66 1014.6
20200328230631 83 115 8.0 15.0 0.00 0.00 0.00 65 1014.6
20200328230128 83 109 8.0 14.0 0.00 0.00 0.00 65 1014.5
20200328225620 84 99 8.0 14.0 0.00 0.00 0.00 65 1014.5
20200328225138 84 80 7.0 10.0 0.00 0.00 0.00 64 1014.5
20200328224628 85 135 8.0 13.0 0.00 0.00 0.00 62 1014.4
20200328224054 85 94 8.0 13.0 0.00 0.00 0.00 62 1014.4
20200328223544 86 84 7.0 11.0 0.00 0.00 0.00 60 1014.3
20200328223048 87 98 7.0 11.0 0.00 0.00 0.00 58 1014.3
20200328222529 88 92 5.0 11.0 0.00 0.00 0.00 55 1014.1
20200328222008 89 97 4.0 9.0 0.00 0.00 0.00 47 1014.1
20200328221515 90 136 4.0 9.0 0.00 0.00 0.00 47 1014.1
20200328221007 90 120 4.0 8.0 0.00 0.00 0.00 47 1014.0
20200328220500 90 142 5.0 11.0 0.00 0.00 0.00 47 1014.0
20200328215959 90 121 4.0 11.0 0.00 0.00 0.00 46 1014.1
20200328215449 90 125 4.0 10.0 0.00 0.00 0.00 48 1014.1
20200328214956 90 103 5.0 10.0 0.00 0.00 0.00 47 1014.1
20200328214400 91 182 4.0 8.0 0.00 0.00 0.00 47 1014.1
20200328213843 91 150 4.0 8.0 0.00 0.00 0.00 47 1014.1
20200328213327 91 138 3.0 8.0 0.00 0.00 0.00 48 1014.1
20200328212830 91 166 3.0 8.0 0.00 0.00 0.00 47 1014.1
20200328212324 90 125 4.0 9.0 0.00 0.00 0.00 47 1014.1
20200328211814 90 125 5.0 11.0 0.00 0.00 0.00 47 1014.1
20200328211302 91 153 6.0 11.0 0.00 0.00 0.00 47 1014.0
20200328210756 91 139 5.0 12.0 0.00 0.00 0.00 47 1014.0
20200328210254 91 180 4.0 11.0 0.00 0.00 0.00 47 1014.0
20200328205753 91 143 4.0 10.0 0.00 0.00 0.00 47 1014.0
20200328205242 91 136 4.0 10.0 0.00 0.00 0.00 47 1014.0
20200328204747 91 245 4.0 9.0 0.00 0.00 0.00 47 1014.1
20200328204240 91 211 5.0 10.0 0.00 0.00 0.00 48 1014.0
20200328203739 91 123 6.0 11.0 0.00 0.00 0.00 47 1013.9
20200328203234 91 126 5.0 15.0 0.00 0.00 0.00 48 1014.0
20200328202728 91 167 4.0 15.0 0.00 0.00 0.00 48 1014.0
20200328202222 91 5 4.0 14.0 0.00 0.00 0.00 49 1014.0
20200328201726 91 190 6.0 14.0 0.00 0.00 0.00 48 1014.1
20200328201206 91 178 6.0 14.0 0.00 0.00 0.00 48 1014.1
20200328200706 91 111 5.0 12.0 0.00 0.00 0.00 48 1014.2
20200328200206 91 132 6.0 12.0 0.00 0.00 0.00 48 1014.2
20200328195703 91 103 5.0 12.0 0.00 0.00 0.00 50 1014.2
20200328195208 91 107 5.0 11.0 0.00 0.00 0.00 49 1014.2
20200328194702 91 116 4.0 11.0 0.00 0.00 0.00 48 1014.3
20200328194152 91 149 3.0 9.0 0.00 0.00 0.00 49 1014.3
20200328193644 91 207 4.0 9.0 0.00 0.00 0.00 49 1014.4
20200328193138 91 244 4.0 12.0 0.00 0.00 0.00 49 1014.4
20200328192635 91 125 5.0 12.0 0.00 0.00 0.00 48 1014.5
20200328192127 91 130 5.0 12.0 0.00 0.00 0.00 50 1014.6
20200328191619 91 253 5.0 14.0 0.00 0.00 0.00 49 1014.5
20200328191124 91 157 4.0 14.0 0.00 0.00 0.00 48 1014.6
20200328190618 91 151 3.0 11.0 0.00 0.00 0.00 49 1014.7
20200328190118 91 173 4.0 13.0 0.00 0.00 0.00 50 1014.7
20200328185621 90 144 6.0 13.0 0.00 0.00 0.00 50 1014.8
20200328185058 90 146 5.0 11.0 0.00 0.00 0.00 51 1014.9
20200328184552 90 105 5.0 10.0 0.00 0.00 0.00 51 1015.0
20200328184054 90 153 5.0 10.0 0.00 0.00 0.00 51 1015.0
20200328183542 90 223 4.0 9.0 0.00 0.00 0.00 52 1015.1
20200328183044 90 221 4.0 9.0 0.00 0.00 0.00 53 1015.2
20200328182532 90 237 5.0 9.0 0.00 0.00 0.00 54 1015.2
20200328182025 89 182 4.0 9.0 0.00 0.00 0.00 56 1015.2
20200328181534 89 129 4.0 9.0 0.00 0.00 0.00 55 1015.4
20200328180959 89 161 5.0 9.0 0.00 0.00 0.00 56 1015.4
20200328180446 89 134 4.0 11.0 0.00 0.00 0.00 57 1015.5
20200328175934 88 140 4.0 9.0 0.00 0.00 0.00 55 1015.6
20200328175435 88 126 4.0 9.0 0.00 0.00 0.00 56 1015.6
20200328174929 88 211 3.0 7.0 0.00 0.00 0.00 57 1015.7
20200328174427 88 150 4.0 10.0 0.00 0.00 0.00 57 1015.7
20200328173931 88 130 5.0 9.0 0.00 0.00 0.00 59 1015.7
20200328173352 88 163 5.0 10.0 0.00 0.00 0.00 58 1015.8
20200328172841 88 136 4.0 10.0 0.00 0.00 0.00 58 1015.9
20200328172330 88 36 4.0 11.0 0.00 0.00 0.00 59 1015.9
20200328171819 87 155 5.0 11.0 0.00 0.00 0.00 59 1016.0
20200328171308 87 144 5.0 10.0 0.00 0.00 0.00 59 1016.0
20200328170805 87 5 4.0 9.0 0.00 0.00 0.00 60 1016.2
20200328170317 87 154 3.0 9.0 0.00 0.00 0.00 60 1016.2
20200328165805 87 85 3.0 9.0 0.00 0.00 0.00 61 1016.3
20200328165309 86 267 5.0 9.0 0.00 0.00 0.00 63 1016.3
20200328164713 86 186 7.0 12.0 0.00 0.00 0.00 63 1016.4
20200328164202 85 125 7.0 12.0 0.00 0.00 0.00 62 1016.4
20200328163651 85 105 6.0 11.0 0.00 0.00 0.00 63 1016.4
20200328163140 85 196 4.0 11.0 0.00 0.00 0.00 64 1016.5
20200328162633 85 157 4.0 10.0 0.00 0.00 0.00 64 1016.6
20200328162121 85 186 5.0 10.0 0.00 0.00 0.00 65 1016.8
20200328161615 85 189 5.0 9.0 0.00 0.00 0.00 65 1016.9